When you browse on this site, cookies collect data to enhance your experience and personalize the content and advertising you see.
Visit our Privacy Policy to learn more. By continuing to use the site, you agree to this use of cookies and data.
  • In Hungary
  • List of Countries
  • For 7 days
  • Water Temperature
  • Satellite Maps
  • Weather Map
  • News
  • Weather Widgets
  • user-avatar
    Login

    Hourly Weather Mleczna

    Today, 19 December, Wednesday

    Time Temperature Precipitation Wind Pressure Humidity
    00:00 -2°C° 0 mm 3 mps 755 mmHg 91%
    01:00 -2°C° 0 mm 3 mps 755 mmHg 90%
    02:00 -2°C° 0 mm 3 mps 755 mmHg 90%
    03:00 -2°C° 0 mm 3 mps 754 mmHg 90%
    04:00 -2°C° 0 mm 3 mps 754 mmHg 89%
    05:00 -2°C° 0 mm 3 mps 754 mmHg 89%
    06:00 -2°C° 0 mm 3 mps 753 mmHg 89%
    07:00 -2°C° 0 mm 3 mps 753 mmHg 88%
    08:00 -2°C° 0 mm 4 mps 753 mmHg 86%
    09:00 -2°C° 0 mm 4 mps 753 mmHg 83%
    10:00 -1°C° 0 mm 4 mps 753 mmHg 80%
    11:00 -1°C° 0 mm 5 mps 752 mmHg 77%
    12:00 0°C° 0 mm 5 mps 752 mmHg 75%
    13:00 0°C° 0 mm 5 mps 752 mmHg 73%
    14:00 0°C° 0 mm 5 mps 751 mmHg 74%
    15:00 -1°C° 0 mm 4 mps 751 mmHg 75%
    16:00 -1°C° 0 mm 4 mps 751 mmHg 76%
    17:00 -1°C° 0 mm 4 mps 751 mmHg 76%
    18:00 -1°C° 0 mm 4 mps 751 mmHg 76%
    19:00 -2°C° 0 mm 4 mps 751 mmHg 76%
    20:00 -2°C° 0.1 mm 4 mps 750 mmHg 76%
    21:00 -2°C° 0.1 mm 4 mps 750 mmHg 76%
    22:00 -2°C° 0.1 mm 4 mps 750 mmHg 76%
    23:00 -1°C° 0.1 mm 3 mps 750 mmHg 76%

    Tomorrow, 20 December, Thursday

    Time Temperature Precipitation Wind Pressure Humidity
    00:00 -1°C° 0.1 mm 3 mps 750 mmHg 76%
    01:00 -1°C° 0.1 mm 3 mps 750 mmHg 76%
    02:00 -1°C° 0 mm 3 mps 750 mmHg 76%
    03:00 -1°C° 0 mm 3 mps 750 mmHg 77%
    04:00 -1°C° 0 mm 3 mps 750 mmHg 77%
    05:00 -2°C° 0 mm 3 mps 750 mmHg 78%
    06:00 -2°C° 0 mm 3 mps 750 mmHg 79%
    07:00 -2°C° 0 mm 3 mps 750 mmHg 80%
    08:00 -2°C° 0 mm 3 mps 750 mmHg 79%
    09:00 -3°C° 0 mm 4 mps 750 mmHg 78%
    10:00 -2°C° 0 mm 4 mps 750 mmHg 78%
    11:00 -2°C° 0.2 mm 4 mps 750 mmHg 79%
    12:00 0°C° 0.2 mm 3 mps 750 mmHg 80%
    13:00 0°C° 0.2 mm 3 mps 749 mmHg 81%
    14:00 0°C° 0.2 mm 3 mps 749 mmHg 83%
    15:00 0°C° 0.2 mm 3 mps 749 mmHg 84%
    16:00 0°C° 0.2 mm 3 mps 749 mmHg 86%
    17:00 0°C° 0 mm 3 mps 750 mmHg 87%
    18:00 0°C° 0 mm 4 mps 750 mmHg 87%
    19:00 0°C° 0 mm 4 mps 750 mmHg 87%
    20:00 0°C° 0 mm 4 mps 750 mmHg 87%
    21:00 0°C° 0 mm 4 mps 750 mmHg 88%
    22:00 0°C° 0 mm 4 mps 750 mmHg 88%
    23:00 0°C° 0 mm 4 mps 750 mmHg 88%

    Day after tomorrow, 21 December, Friday

    Time Temperature Precipitation Wind Pressure Humidity
    00:00 0°C° 0 mm 4 mps 750 mmHg 88%
    01:00 +1°C° 0 mm 4 mps 750 mmHg 88%
    02:00 0°C° 0 mm 4 mps 749 mmHg 88%
    03:00 0°C° 0 mm 4 mps 749 mmHg 88%
    04:00 0°C° 0 mm 4 mps 749 mmHg 88%
    05:00 0°C° 0 mm 4 mps 749 mmHg 88%
    06:00 0°C° 0 mm 4 mps 748 mmHg 88%
    07:00 0°C° 0 mm 4 mps 748 mmHg 87%
    08:00 +1°C° 0 mm 5 mps 748 mmHg 86%
    09:00 +1°C° 0 mm 5 mps 748 mmHg 85%
    10:00 +1°C° 0 mm 5 mps 747 mmHg 84%
    11:00 +2°C° 0.1 mm 5 mps 746 mmHg 84%
    12:00 +2°C° 0.1 mm 5 mps 746 mmHg 83%
    13:00 +2°C° 0.1 mm 5 mps 745 mmHg 82%
    14:00 +2°C° 0.5 mm 6 mps 744 mmHg 82%
    15:00 +2°C° 0.5 mm 6 mps 743 mmHg 83%
    16:00 +2°C° 0.5 mm 6 mps 743 mmHg 83%
    17:00 +2°C° 1.1 mm 7 mps 742 mmHg 83%
    18:00 +3°C° 1.1 mm 7 mps 741 mmHg 83%
    19:00 +2°C° 1.1 mm 8 mps 740 mmHg 83%
    20:00 +4°C° 0.2 mm 8 mps 740 mmHg 84%
    21:00 +5°C° 0.2 mm 7 mps 740 mmHg 85%
    22:00 +6°C° 0.2 mm 7 mps 740 mmHg 87%
    23:00 +5°C° 0 mm 7 mps 740 mmHg 85%

    22 December, Saturday

    Time Temperature Precipitation Wind Pressure Humidity
    00:00 +5°C° 0 mm 6 mps 740 mmHg 84%
    01:00 +4°C° 0 mm 6 mps 741 mmHg 83%
    02:00 +4°C° 0 mm 6 mps 741 mmHg 83%
    03:00 +4°C° 0 mm 6 mps 741 mmHg 83%
    04:00 +4°C° 0 mm 6 mps 741 mmHg 83%
    05:00 +5°C° 0 mm 5 mps 741 mmHg 83%
    06:00 +5°C° 0 mm 5 mps 741 mmHg 83%
    07:00 +5°C° 0 mm 5 mps 741 mmHg 83%
    08:00 +5°C° 0 mm 5 mps 740 mmHg 84%
    09:00 +5°C° 0 mm 5 mps 740 mmHg 85%
    10:00 +6°C° 0 mm 5 mps 740 mmHg 86%
    11:00 +6°C° 0.3 mm 5 mps 739 mmHg 85%
    12:00 +7°C° 0.3 mm 6 mps 739 mmHg 84%
    13:00 +8°C° 0.3 mm 7 mps 738 mmHg 83%
    14:00 +6°C° 0.2 mm 7 mps 738 mmHg 83%
    15:00 +6°C° 0.2 mm 8 mps 739 mmHg 82%
    16:00 +6°C° 0.2 mm 8 mps 739 mmHg 81%
    17:00 +5°C° 0 mm 7 mps 740 mmHg 82%
    18:00 +5°C° 0 mm 7 mps 741 mmHg 82%
    19:00 +5°C° 0 mm 6 mps 742 mmHg 83%
    20:00 +4°C° 0 mm 6 mps 742 mmHg 82%
    21:00 +4°C° 0 mm 6 mps 742 mmHg 81%
    22:00 +4°C° 0 mm 6 mps 742 mmHg 80%
    23:00 +4°C° 0.1 mm 7 mps 743 mmHg 81%

    23 December, Sunday

    Time Temperature Precipitation Wind Pressure Humidity
    00:00 +4°C° 0.1 mm 7 mps 743 mmHg 81%
    01:00 +4°C° 0.1 mm 8 mps 744 mmHg 82%
    02:00 +4°C° 0.3 mm 7 mps 744 mmHg 82%
    03:00 +4°C° 0.3 mm 7 mps 745 mmHg 82%
    04:00 +4°C° 0.3 mm 6 mps 745 mmHg 82%
    05:00 +3°C° 0.1 mm 6 mps 746 mmHg 83%
    06:00 +3°C° 0.1 mm 6 mps 746 mmHg 83%
    07:00 +3°C° 0.1 mm 6 mps 747 mmHg 84%
    08:00 +3°C° 0 mm 6 mps 747 mmHg 83%
    09:00 +3°C° 0 mm 6 mps 747 mmHg 81%
    10:00 +4°C° 0 mm 6 mps 748 mmHg 80%
    11:00 +4°C° 0.1 mm 6 mps 748 mmHg 78%
    12:00 +4°C° 0.1 mm 6 mps 748 mmHg 77%
    13:00 +5°C° 0.1 mm 6 mps 748 mmHg 75%
    14:00 +4°C° 0.1 mm 6 mps 748 mmHg 77%
    15:00 +5°C° 0.1 mm 5 mps 748 mmHg 79%
    16:00 +3°C° 0.1 mm 5 mps 748 mmHg 81%
    17:00 +3°C° 0.1 mm 5 mps 748 mmHg 81%
    18:00 +3°C° 0.1 mm 6 mps 748 mmHg 81%
    19:00 +3°C° 0.1 mm 6 mps 749 mmHg 81%
    20:00 +3°C° 0 mm 6 mps 749 mmHg 81%
    21:00 +3°C° 0 mm 6 mps 749 mmHg 81%
    22:00 +3°C° 0 mm 7 mps 749 mmHg 81%
    23:00 +3°C° 0.1 mm 6 mps 750 mmHg 82%

    24 December, Monday

    Time Temperature Precipitation Wind Pressure Humidity
    00:00 +3°C° 0.1 mm 6 mps 750 mmHg 83%
    01:00 +2°C° 0.1 mm 6 mps 751 mmHg 84%
    02:00 +2°C° 0.1 mm 5 mps 751 mmHg 85%
    03:00 +2°C° 0.1 mm 5 mps 751 mmHg 86%
    04:00 +3°C° 0.1 mm 4 mps 752 mmHg 87%
    05:00 +3°C° 0.1 mm 3 mps 752 mmHg 88%
    06:00 +2°C° 0.1 mm 3 mps 752 mmHg 90%
    07:00 +3°C° 0.1 mm 2 mps 753 mmHg 91%
    08:00 +4°C° 0.2 mm 2 mps 753 mmHg 89%
    09:00 +3°C° 0.2 mm 3 mps 754 mmHg 88%
    10:00 +3°C° 0.2 mm 3 mps 754 mmHg 86%
    11:00 +3°C° 0.2 mm 3 mps 754 mmHg 84%
    12:00 +4°C° 0.2 mm 4 mps 754 mmHg 82%
    13:00 +4°C° 0.2 mm 4 mps 754 mmHg 80%
    14:00 +4°C° 0.1 mm 4 mps 754 mmHg 82%
    15:00 +4°C° 0.1 mm 3 mps 755 mmHg 84%
    16:00 +3°C° 0.1 mm 3 mps 755 mmHg 85%
    17:00 +3°C° 0.1 mm 3 mps 755 mmHg 87%
    18:00 +2°C° 0.1 mm 3 mps 755 mmHg 88%
    19:00 +2°C° 0.1 mm 3 mps 755 mmHg 89%
    20:00 +2°C° 0 mm 3 mps 756 mmHg 89%
    21:00 +2°C° 0 mm 3 mps 756 mmHg 89%
    22:00 +2°C° 0 mm 3 mps 756 mmHg 89%
    23:00 +2°C° 0 mm 3 mps 756 mmHg 89%
    Show more